Liberal, KS

9:52 AM CDT on October 21, 2017 (GMT -0500)
Liberal Municipal

Weather History for KLBL - October, 2013

Change the Weather History Date:

Thursday, October 3, 2013

  Actual Average Record
Temperature  
Mean Temperature 74 °F -  
Max Temperature 91 °F 81 °F 97 °F (1954)
Min Temperature 57 °F 50 °F 37 °F (1999)
Cooling Degree Days 9    
Growing Degree Days 24 (Base 50)    
Moisture  
Dew Point 46 °F    
Average Humidity 48    
Maximum Humidity 88    
Minimum Humidity 14    
Precipitation  
Precipitation 0.00 in - - ()
Sea Level Pressure  
Sea Level Pressure 29.73 in    
Wind  
Wind Speed 15 mph (SSW)    
Max Wind Speed 25 mph    
Max Gust Speed 33 mph    
Visibility 10 miles    
Events      
Averages and records for this station are not official NWS values.
T = Trace of Precipitation, MM = Missing Value Source: NWS Daily Summary

Daily Weather History Graph

Daily Weather History Graph

Search for Another Location

Airport or City:

Trip Planner

Search our weather history database for the weather conditions in past years. The results will help you decide how hot, cold, wet, or windy it might be!

Date:

Astronomy

Oct. 03, 2013 Rise Set
Actual Time 7:41 AM CDT 7:23 PM CDT
Civil Twilight 7:15 AM CDT 7:49 PM CDT
Nautical Twilight 6:45 AM CDT 8:19 PM CDT
Astronomical Twilight 6:14 AM CDT 8:49 PM CDT
Moon 6:17 AM CDT (10/3) 6:32 PM CDT (10/3)
Length of Visible Light 12h 34m
Length of Day
11h 42m
Waning Crescent, 2% of the Moon is Illuminated
Oct 3
Waning Crescent
Oct 4
New
Oct 11
First Quarter
Oct 18
Full
Oct 26
Last Quarter

Hourly Weather History & Observations

Time (CDT) Temp. Dew Point Humidity Pressure Visibility Wind Dir Wind Speed Gust Speed Precip Events Conditions
12:15 AM 71.6 °F 60.8 °F 69% 29.81 in 10.0 mi SSE 18.4 mph - N/A   Clear
12:35 AM 69.8 °F 60.8 °F 73% 29.81 in 10.0 mi SSE 18.4 mph - N/A   Clear
12:55 AM 69.8 °F 60.8 °F 73% 29.80 in 10.0 mi SSE 19.6 mph - N/A   Clear
1:15 AM 69.8 °F 60.8 °F 73% 29.79 in 10.0 mi SSE 17.3 mph - N/A   Clear
1:35 AM 69.8 °F 60.8 °F 73% 29.78 in 10.0 mi SSE 18.4 mph - N/A   Clear
1:55 AM 69.8 °F 60.8 °F 73% 29.78 in 10.0 mi SSE 17.3 mph - N/A   Clear
2:15 AM 68.0 °F 60.8 °F 78% 29.78 in 10.0 mi South 17.3 mph - N/A   Clear
2:35 AM 68.0 °F 60.8 °F 78% 29.78 in 10.0 mi SSE 17.3 mph - N/A   Clear
2:55 AM 66.2 °F 60.8 °F 83% 29.77 in 10.0 mi SSE 16.1 mph - N/A   Clear
3:15 AM 66.2 °F 60.8 °F 83% 29.77 in 10.0 mi South 13.8 mph - N/A   Clear
3:35 AM 66.2 °F 59.0 °F 78% 29.76 in 10.0 mi South 13.8 mph - N/A   Clear
3:55 AM 64.4 °F 59.0 °F 83% 29.75 in 10.0 mi South 12.7 mph - N/A   Clear
4:15 AM 64.4 °F 59.0 °F 83% 29.76 in 10.0 mi South 12.7 mph - N/A   Clear
4:35 AM 62.6 °F 57.2 °F 82% 29.75 in 10.0 mi South 11.5 mph - N/A   Clear
4:55 AM 62.6 °F 57.2 °F 82% 29.75 in 10.0 mi South 11.5 mph - N/A   Clear
5:15 AM 62.6 °F 57.2 °F 82% 29.75 in 10.0 mi South 11.5 mph - N/A   Clear
5:35 AM 62.6 °F 57.2 °F 82% 29.76 in 10.0 mi South 11.5 mph - N/A   Clear
5:55 AM 60.8 °F 57.2 °F 88% 29.75 in 10.0 mi South 11.5 mph - N/A   Clear
6:15 AM 60.8 °F 57.2 °F 88% 29.75 in 10.0 mi South 12.7 mph - N/A   Clear
6:35 AM 60.8 °F 55.4 °F 82% 29.76 in 10.0 mi SSW 12.7 mph - N/A   Clear
6:55 AM 60.8 °F 55.4 °F 82% 29.76 in 10.0 mi SSW 12.7 mph - N/A   Clear
7:15 AM 59.0 °F 55.4 °F 88% 29.76 in 10.0 mi SSW 11.5 mph - N/A   Clear
7:35 AM 57.2 °F 53.6 °F 88% 29.76 in 10.0 mi South 10.4 mph - N/A   Clear
7:55 AM 57.2 °F 51.8 °F 82% 29.77 in 10.0 mi SSW 11.5 mph - N/A   Clear
8:15 AM 57.2 °F 51.8 °F 82% 29.77 in 10.0 mi SSW 11.5 mph - N/A   Clear
8:35 AM 57.2 °F 48.2 °F 72% 29.78 in 10.0 mi SSW 10.4 mph - N/A   Clear
8:55 AM 57.2 °F 48.2 °F 72% 29.79 in 10.0 mi SW 10.4 mph - N/A   Clear
9:15 AM 57.2 °F 46.4 °F 67% 29.79 in 10.0 mi WSW 9.2 mph - N/A   Clear
9:35 AM 59.0 °F 46.4 °F 63% 29.79 in 10.0 mi SSW 11.5 mph - N/A   Clear
9:55 AM 60.8 °F 46.4 °F 59% 29.79 in 10.0 mi SW 10.4 mph - N/A   Clear
10:15 AM 62.6 °F 46.4 °F 55% 29.79 in 10.0 mi SSW 11.5 mph - N/A   Clear
10:35 AM 66.2 °F 46.4 °F 49% 29.79 in 10.0 mi SSW 12.7 mph - N/A   Clear
10:55 AM 69.8 °F 44.6 °F 40% 29.79 in 10.0 mi SSW 11.5 mph - N/A   Clear
11:15 AM 71.6 °F 44.6 °F 38% 29.79 in 10.0 mi SSW 11.5 mph - N/A   Clear
11:35 AM 73.4 °F 42.8 °F 33% 29.79 in 10.0 mi SSW 11.5 mph - N/A   Clear
11:55 AM 77.0 °F 41.0 °F 28% 29.79 in 10.0 mi SSW 11.5 mph - N/A   Clear
12:15 PM 78.8 °F 41.0 °F 26% 29.78 in 10.0 mi SSW 11.5 mph - N/A   Clear
12:35 PM 80.6 °F 39.2 °F 23% 29.77 in 10.0 mi SSW 10.4 mph - N/A   Clear
12:55 PM 80.6 °F 42.8 °F 26% 29.76 in 10.0 mi South 10.4 mph - N/A   Clear
1:15 PM 82.4 °F 42.8 °F 25% 29.76 in 10.0 mi SSW 13.8 mph - N/A   Clear
1:35 PM 82.4 °F 44.6 °F 26% 29.75 in 10.0 mi SW 11.5 mph 17.3 mph N/A   Clear
1:55 PM 84.2 °F 46.4 °F 27% 29.73 in 10.0 mi South 9.2 mph 16.1 mph N/A   Clear
2:15 PM 86.0 °F 46.4 °F 25% 29.71 in 10.0 mi South 9.2 mph 16.1 mph N/A   Clear
2:35 PM 89.6 °F 44.6 °F 21% 29.70 in 10.0 mi South 19.6 mph 26.5 mph N/A   Clear
2:55 PM 89.6 °F 42.8 °F 20% 29.69 in 10.0 mi South 20.7 mph 24.2 mph N/A   Clear
3:15 PM 91.4 °F 42.8 °F 18% 29.69 in 10.0 mi South 20.7 mph 28.8 mph N/A   Clear
3:35 PM 91.4 °F 42.8 °F 18% 29.68 in 10.0 mi South 25.3 mph 32.2 mph N/A   Clear
3:55 PM 91.4 °F 39.2 °F 16% 29.67 in 10.0 mi SSW 20.7 mph 32.2 mph N/A   Clear
4:15 PM 91.4 °F 37.4 °F 15% 29.67 in 10.0 mi South 24.2 mph 32.2 mph N/A   Clear
4:35 PM 91.4 °F 37.4 °F 15% 29.66 in 10.0 mi South 19.6 mph 28.8 mph N/A   Clear
4:55 PM 91.4 °F 37.4 °F 15% 29.66 in 10.0 mi South 19.6 mph 33.4 mph N/A   Clear
5:15 PM 91.4 °F 35.6 °F 14% 29.65 in 10.0 mi SSW 20.7 mph 28.8 mph N/A   Clear
5:35 PM 89.6 °F 35.6 °F 15% 29.65 in 10.0 mi South 23.0 mph 31.1 mph N/A   Clear
5:55 PM 89.6 °F 35.6 °F 15% 29.64 in 10.0 mi South 17.3 mph - N/A   Clear
6:15 PM 89.6 °F 35.6 °F 15% 29.64 in 10.0 mi South 20.7 mph 27.6 mph N/A   Clear
6:35 PM 87.8 °F 33.8 °F 15% 29.64 in 10.0 mi South 18.4 mph 25.3 mph N/A   Clear
6:55 PM 84.2 °F 33.8 °F 16% 29.65 in 10.0 mi SSW 12.7 mph - N/A   Clear
7:15 PM 80.6 °F 33.8 °F 18% 29.65 in 10.0 mi SSW 11.5 mph - N/A   Clear
7:35 PM 75.2 °F 30.2 °F 19% 29.66 in 10.0 mi SSW 9.2 mph - N/A   Clear
7:55 PM 73.4 °F 32.0 °F 22% 29.67 in 10.0 mi SSW 10.4 mph - N/A   Clear
8:15 PM 69.8 °F 33.8 °F 27% 29.68 in 10.0 mi SSW 8.1 mph - N/A   Clear
8:35 PM 71.6 °F 33.8 °F 25% 29.68 in 10.0 mi South 8.1 mph - N/A   Clear
8:55 PM 71.6 °F 33.8 °F 25% 29.69 in 10.0 mi SW 6.9 mph - N/A   Clear
9:15 PM 69.8 °F 33.8 °F 27% 29.69 in 10.0 mi SSW 8.1 mph - N/A   Clear
9:35 PM 66.2 °F 33.8 °F 30% 29.69 in 10.0 mi SSW 9.2 mph - N/A   Clear
9:55 PM 64.4 °F 35.6 °F 34% 29.69 in 10.0 mi SSW 10.4 mph - N/A   Clear
10:15 PM 68.0 °F 35.6 °F 30% 29.69 in 10.0 mi SW 12.7 mph - N/A   Clear
10:35 PM 73.4 °F 37.4 °F 27% 29.68 in 10.0 mi SW 20.7 mph - N/A   Clear
11:35 PM 66.2 °F 35.6 °F 32% 29.69 in 10.0 mi South 12.7 mph - N/A   Clear
11:55 PM 66.2 °F 35.6 °F 32% 29.70 in 10.0 mi South 10.4 mph - N/A   Clear